Project,Study,Ord_Occ,Event_Num,Cast_ID,Date_Time_UTC,Date_Time_PST,Lat_Dec,Lon_Dec,Sta_ID,Line,Sta,Depth,Pressure,PrQ,Temp1,Temp1Q,Temp2,Temp2Q,TempAve,Salt1,Salt1Q,Salt1_Corr,Salt2,Salt2Q,Salt2_Corr,SaltAve_Corr,Ox1,Ox1Q,Ox1_CruiseCorr,Ox1_StaCorr,Ox2,Ox2Q,Ox2_CruiseCorr,Ox2_StaCorr,OxAve_StaCorr,Ox1uM,Ox1uM_CruiseCorr,Ox1uM_StaCorr,Ox2uM,Ox2uM_CruiseCorr,Ox2uM_StaCorr,OxAveuM_StaCorr,FluorV,FluorQ,EstChl_CruiseCorr,EstChl_StaCorr,ISUSV,ISUSQ,EstNO3_CruiseCorr,EstNO3_StaCorr,SigThetaTS1,SigThetaTS1Q,SigThetaTS2,SigThetaTS2Q,BAT,XMiss,TransQ,pH,pHQ,SPAR,SPARQ,PAR,PARQ,PoT1,PoT2,DynHt,SVA,OxSat1,OxSat2,BTL_Depth,BTL_Temp,SaltB,OxB,OxBuM,Chl-a,Phaeo,NO3,NO2,NH4,PO4,SIL
CalCOFI,2007SR,058,60,2007_058u,24-Jul-2020 11:32:05,24-Jul-2020 03:32:05,33.48228,-122.53278,080.0 080.0,080.0,080.0,516.000,520.338,,5.4002,,5.3993,,5.3998,34.2368,,34.2370,34.2384,,34.2400,34.2385,0.3639,,0.3625,0.4107,2.1965,,1.3025,0.7852,0.5980,15.825,16.0316,9.8915,95.514,,26.7921,18.3418,0.0322,,,,-99.0,,-99.0,-99.0,27.0284,,27.0298,,0.6353,85.3149,,7.534,,1.9043E+00,,1.0000E-12,,5.3573,5.3564,0.8843,,5.168,31.190,516,5.400,34.2386,0.358,15.64,,,41.09,0.00,0.00,3.18,86.93
CalCOFI,2007SR,058,60,2007_058u,24-Jul-2020 11:32:26,24-Jul-2020 03:32:26,33.48228,-122.53279,080.0 080.0,080.0,080.0,515.000,519.329,,5.4008,,5.4006,,5.4007,34.2367,,34.2369,34.2383,,34.2399,34.2384,0.3616,,0.3601,0.4083,2.1768,,1.2555,0.7375,0.5729,15.726,15.9283,9.7886,94.659,,24.7093,17.2490,0.0325,,,,-99.0,,-99.0,-99.0,27.0282,,27.0295,,0.6353,85.3143,,7.534,,1.9043E+00,,1.0000E-12,,5.3579,5.3578,0.8859,,5.135,30.912,,,,,,,,,,,,
CalCOFI,2007SR,058,60,2007_058u,24-Jul-2020 11:32:37,24-Jul-2020 03:32:37,33.48228,-122.53280,080.0 080.0,080.0,080.0,514.000,518.319,,5.3994,,5.3990,,5.3992,34.2364,,34.2366,34.2380,,34.2396,34.2381,0.3580,,0.3564,0.4046,2.1596,,1.2144,0.6959,0.5503,15.566,15.7612,9.6224,93.911,,22.8872,16.2548,0.0325,,,,-99.0,,-99.0,-99.0,27.0282,,27.0295,,0.6356,85.3082,,7.534,,1.9043E+00,,1.0000E-12,,5.3566,5.3563,0.8866,,5.083,30.666,,,,,,,,,,,,
CalCOFI,2007SR,058,60,2007_058u,24-Jul-2020 11:32:38,24-Jul-2020 03:32:38,33.48228,-122.53279,080.0 080.0,080.0,080.0,513.000,517.309,,5.3987,,5.3986,,5.3987,34.2364,,34.2366,34.2380,,34.2396,34.2381,0.3640,,0.3626,0.4108,2.1667,,1.2314,0.7131,0.5620,15.827,16.0337,9.8936,94.217,,23.6326,16.7631,0.0330,,,,-99.0,,-99.0,-99.0,27.0282,,27.0295,,0.6353,85.3147,,7.534,,1.9043E+00,,1.0000E-12,,5.3560,5.3560,0.8866,,5.168,30.765,,,,,,,,,,,,
CalCOFI,2007SR,058,60,2007_058u,24-Jul-2020 11:32:40,24-Jul-2020 03:32:40,33.48228,-122.53280,080.0 080.0,080.0,080.0,512.000,516.300,,5.3996,,5.3997,,5.3997,34.2365,,34.2367,34.2378,,34.2394,34.2381,0.3663,,0.3650,0.4132,2.1664,,1.2306,0.7124,0.5628,15.930,16.1412,10.0006,94.205,,23.6034,16.8020,0.0324,,,,-99.0,,-99.0,-99.0,27.0282,,27.0292,,0.6354,85.3122,,7.534,,1.9043E+00,,1.0000E-12,,5.3570,5.3571,0.8866,,5.202,30.762,,,,,,,,,,,,
CalCOFI,2007SR,058,60,2007_058u,24-Jul-2020 11:32:41,24-Jul-2020 03:32:41,33.48228,-122.53280,080.0 080.0,080.0,080.0,511.000,515.290,,5.4008,,5.4019,,5.4014,34.2365,,34.2367,34.2374,,34.2390,34.2379,0.3645,,0.3632,0.4113,2.1666,,1.2311,0.7129,0.5621,15.851,16.0588,9.9185,94.215,,23.6277,16.7731,0.0328,,,,-99.0,,-99.0,-99.0,27.0280,,27.0286,,0.6353,85.3149,,7.534,,1.9043E+00,,1.0000E-12,,5.3584,5.3594,0.8866,,5.176,30.767,,,,,,,,,,,,
CalCOFI,2007SR,058,60,2007_058u,24-Jul-2020 11:32:42,24-Jul-2020 03:32:42,33.48228,-122.53280,080.0 080.0,080.0,080.0,510.000,514.281,,5.4035,,5.4041,,5.4038,34.2358,,34.2360,34.2366,,34.2382,34.2371,0.3719,,0.3709,0.4190,2.1622,,1.2206,0.7022,0.5606,16.172,16.3939,10.2521,94.021,,23.1552,16.7037,0.0323,,,,-99.0,,-99.0,-99.0,27.0272,,27.0277,,0.6353,85.3148,,7.534,,1.9043E+00,,1.0000E-12,,5.3611,5.3617,0.8866,,5.281,30.705,,,,,,,,,,,,
CalCOFI,2007SR,058,60,2007_058u,24-Jul-2020 11:32:43,24-Jul-2020 03:32:43,33.48228,-122.53280,080.0 080.0,080.0,080.0,509.000,513.271,,5.4049,,5.4050,,5.4050,34.2337,,34.2339,34.2352,,34.2368,34.2354,0.3764,,0.3756,0.4237,2.1522,,1.1967,0.6780,0.5509,16.367,16.5974,10.4547,93.588,,22.1004,16.2776,0.0331,,,,-99.0,,-99.0,-99.0,27.0253,,27.0265,,0.6356,85.3073,,7.535,,1.9043E+00,,1.0000E-12,,5.3626,5.3626,0.8866,,5.345,30.564,,,,,,,,,,,,
CalCOFI,2007SR,058,60,2007_058u,24-Jul-2020 11:32:44,24-Jul-2020 03:32:44,33.48228,-122.53280,080.0 080.0,080.0,080.0,508.000,512.261,,5.4035,,5.4034,,5.4035,34.2305,,34.2307,34.2325,,34.2341,34.2324,0.3770,,0.3762,0.4243,2.1577,,1.2099,0.6913,0.5578,16.396,16.6277,10.4848,93.827,,22.6826,16.5837,0.0319,,,,-99.0,,-99.0,-99.0,27.0229,,27.0245,,0.6353,85.3146,,7.534,,1.9043E+00,,1.0000E-12,,5.3613,5.3611,0.8866,,5.354,30.640,,,,,,,,,,,,
CalCOFI,2007SR,058,60,2007_058u,24-Jul-2020 11:32:45,24-Jul-2020 03:32:45,33.48228,-122.53278,080.0 080.0,080.0,080.0,507.000,511.252,,5.4024,,5.4025,,5.4025,34.2292,,34.2294,34.2306,,34.2322,34.2308,0.3810,,0.3804,0.4285,2.1601,,1.2156,0.6971,0.5628,16.570,16.8093,10.6657,93.932,,22.9383,16.8020,0.0319,,,,-99.0,,-99.0,-99.0,27.0220,,27.0232,,0.6353,85.3148,,7.535,,1.9043E+00,,1.0000E-12,,5.3603,5.3604,0.8866,,5.411,30.674,,,,,,,,,,,,
CalCOFI,2007SR,058,60,2007_058u,24-Jul-2020 11:32:46,24-Jul-2020 03:32:46,33.48228,-122.53278,080.0 080.0,080.0,080.0,506.000,510.242,,5.4078,,5.4100,,5.4089,34.2291,,34.2293,34.2294,,34.2310,34.2302,0.3861,,0.3857,0.4338,2.1595,,1.2142,0.6957,0.5648,16.787,17.0358,10.8911,93.906,,22.8750,16.8831,0.0327,,,,-99.0,,-99.0,-99.0,27.0213,,27.0212,,0.6353,85.3148,,7.534,,1.9043E+00,,1.0000E-12,,5.3657,5.3679,0.8866,,5.483,30.670,,,,,,,,,,,,
CalCOFI,2007SR,058,60,2007_058u,24-Jul-2020 11:32:48,24-Jul-2020 03:32:48,33.48228,-122.53278,080.0 080.0,080.0,080.0,505.000,509.232,,5.4135,,5.4148,,5.4142,34.2268,,34.2270,34.2271,,34.2287,34.2279,0.3872,,0.3869,0.4349,2.1590,,1.2130,0.6945,0.5647,16.836,17.0870,10.9421,93.884,,22.8214,16.8818,0.0321,,,,-99.0,,-99.0,-99.0,27.0188,,27.0189,,0.6353,85.3148,,7.534,,1.9043E+00,,1.0000E-12,,5.3715,5.3728,0.8866,,5.499,30.666,,,,,,,,,,,,
CalCOFI,2007SR,058,60,2007_058u,24-Jul-2020 11:32:49,24-Jul-2020 03:32:49,33.48228,-122.53278,080.0 080.0,080.0,080.0,504.000,508.223,,5.4159,,5.4165,,5.4162,34.2252,,34.2254,34.2261,,34.2277,34.2266,0.3886,,0.3883,0.4364,2.1554,,1.2044,0.6858,0.5611,16.897,17.1507,11.0054,93.727,,22.4390,16.7222,0.0315,,,,-99.0,,-99.0,-99.0,27.0173,,27.0179,,0.6353,85.3148,,7.534,,1.9043E+00,,1.0000E-12,,5.3740,5.3746,0.8866,,5.519,30.616,,,,,,,,,,,,
CalCOFI,2007SR,058,60,2007_058u,24-Jul-2020 11:32:49,24-Jul-2020 03:32:49,33.48227,-122.53278,080.0 080.0,080.0,080.0,503.000,507.213,,5.4184,,5.4187,,5.4186,34.2242,,34.2244,34.2250,,34.2266,34.2255,0.3920,,0.3919,0.4399,2.1520,,1.1963,0.6775,0.5587,17.047,17.3073,11.1613,93.582,,22.0858,16.6236,0.0331,,,,-99.0,,-99.0,-99.0,27.0161,,27.0168,,0.6353,85.3148,,7.534,,1.9043E+00,,1.0000E-12,,5.3765,5.3769,0.8866,,5.568,30.570,,,,,,,,,,,,
CalCOFI,2007SR,058,60,2007_058u,24-Jul-2020 11:32:50,24-Jul-2020 03:32:50,33.48226,-122.53278,080.0 080.0,080.0,080.0,502.000,506.204,,5.4186,,5.4186,,5.4186,34.2223,,34.2225,34.2240,,34.2256,34.2241,0.3930,,0.3929,0.4409,2.1556,,1.2049,0.6862,0.5636,17.089,17.3511,11.2050,93.739,,22.4682,16.8366,0.0312,,,,-99.0,,-99.0,-99.0,27.0146,,27.0160,,0.6356,85.3074,,7.534,,1.9043E+00,,1.0000E-12,,5.3768,5.3768,0.8866,,5.582,30.621,,,,,,,,,,,,
CalCOFI,2007SR,058,60,2007_058u,24-Jul-2020 11:32:51,24-Jul-2020 03:32:51,33.48227,-122.53278,080.0 080.0,080.0,080.0,501.000,505.194,,5.4183,,5.4188,,5.4186,34.2221,,34.2223,34.2232,,34.2248,34.2236,0.3982,,0.3984,0.4463,2.1493,,1.1898,0.6710,0.5587,17.315,17.5870,11.4398,93.464,,21.7983,16.6191,0.0326,,,,-99.0,,-99.0,-99.0,27.0145,,27.0153,,0.6356,85.3087,,7.535,,1.9043E+00,,1.0000E-12,,5.3766,5.3771,0.8866,,5.656,30.531,,,,,,,,,,,,
CalCOFI,2007SR,058,60,2007_058u,24-Jul-2020 11:32:52,24-Jul-2020 03:32:52,33.48228,-122.53278,080.0 080.0,080.0,080.0,500.000,504.184,,5.4208,,5.4217,,5.4213,34.2222,,34.2224,34.2230,,34.2246,34.2235,0.3995,,0.3997,0.4477,2.1520,,1.1963,0.6775,0.5626,17.373,17.6476,11.5001,93.579,,22.0785,16.7893,0.0326,,,,-99.0,,-99.0,-99.0,27.0142,,27.0147,,0.6353,85.3146,,7.534,,1.9043E+00,,1.0000E-12,,5.3792,5.3801,0.8866,,5.675,30.570,,,,,,,,,,,,
CalCOFI,2007SR,058,60,2007_058u,24-Jul-2020 11:32:54,24-Jul-2020 03:32:54,33.48228,-122.53278,080.0 080.0,080.0,080.0,499.000,503.175,,5.4238,,5.4244,,5.4241,34.2206,,34.2208,34.2213,,34.2229,34.2219,0.4051,,0.4056,0.4535,2.1521,,1.1965,0.6778,0.5657,17.614,17.8992,11.7505,93.584,,22.0906,16.9206,0.0329,,,,-99.0,,-99.0,-99.0,27.0126,,27.0131,,0.6353,85.3148,,7.535,,1.9043E+00,,1.0000E-12,,5.3823,5.3829,0.8866,,5.754,30.573,,,,,,,,,,,,
CalCOFI,2007SR,058,60,2007_058u,24-Jul-2020 11:32:55,24-Jul-2020 03:32:55,33.48228,-122.53278,080.0 080.0,080.0,080.0,498.000,502.165,,5.4268,,5.4280,,5.4274,34.2184,,34.2186,34.2192,,34.2208,34.2197,0.4115,,0.4123,0.4601,2.1527,,1.1979,0.6792,0.5697,17.894,18.1914,12.0415,93.611,,22.1564,17.0990,0.0333,,,,-99.0,,-99.0,-99.0,27.0105,,27.0110,,0.6353,85.3148,,7.535,,1.9043E+00,,1.0000E-12,,5.3853,5.3865,0.8866,,5.846,30.585,,,,,,,,,,,,
CalCOFI,2007SR,058,60,2007_058u,24-Jul-2020 11:32:55,24-Jul-2020 03:32:55,33.48227,-122.53278,080.0 080.0,080.0,080.0,497.000,501.156,,5.4247,,5.4247,,5.4247,34.2146,,34.2148,34.2161,,34.2177,34.2163,0.4119,,0.4127,0.4606,2.1516,,1.1953,0.6766,0.5686,17.911,18.2092,12.0591,93.565,,22.0443,17.0517,0.0319,,,,-99.0,,-99.0,-99.0,27.0077,,27.0089,,0.6353,85.3148,,7.535,,1.9043E+00,,1.0000E-12,,5.3834,5.3834,0.8866,,5.851,30.566,,,,,,,,,,,,
CalCOFI,2007SR,058,60,2007_058u,24-Jul-2020 11:32:56,24-Jul-2020 03:32:56,33.48226,-122.53278,080.0 080.0,080.0,080.0,496.000,500.146,,5.4275,,5.4279,,5.4277,34.2133,,34.2135,34.2143,,34.2159,34.2147,0.4117,,0.4125,0.4604,2.1493,,1.1898,0.6710,0.5657,17.901,18.1988,12.0487,93.464,,21.7983,16.9235,0.0322,,,,-99.0,,-99.0,-99.0,27.0063,,27.0071,,0.6353,85.3148,,7.534,,1.9043E+00,,1.0000E-12,,5.3862,5.3866,0.8866,,5.848,30.535,,,,,,,,,,,,
CalCOFI,2007SR,058,60,2007_058u,24-Jul-2020 11:32:57,24-Jul-2020 03:32:57,33.48226,-122.53278,080.0 080.0,080.0,080.0,495.000,499.137,,5.4305,,5.4313,,5.4309,34.2128,,34.2130,34.2138,,34.2154,34.2142,0.4134,,0.4143,0.4621,2.1497,,1.1908,0.6720,0.5671,17.977,18.2781,12.1277,93.480,,21.8373,16.9825,0.0323,,,,-99.0,,-99.0,-99.0,27.0056,,27.0063,,0.6355,85.3096,,7.535,,1.9043E+00,,1.0000E-12,,5.3893,5.3901,0.8866,,5.874,30.543,,,,,,,,,,,,
CalCOFI,2007SR,058,60,2007_058u,24-Jul-2020 11:32:58,24-Jul-2020 03:32:58,33.48226,-122.53278,080.0 080.0,080.0,080.0,494.000,498.127,,5.4340,,5.4374,,5.4357,34.2129,,34.2131,34.2150,,34.2166,34.2149,0.4080,,0.4086,0.4565,2.1481,,1.1870,0.6681,0.5623,17.741,18.0317,11.8825,93.412,,21.6716,16.7771,0.0323,,,,-99.0,,-99.0,-99.0,27.0053,,27.0065,,0.6358,85.3047,,7.535,,1.9043E+00,,1.0000E-12,,5.3929,5.3963,0.8866,,5.797,30.525,,,,,,,,,,,,
CalCOFI,2007SR,058,60,2007_058u,24-Jul-2020 11:33:00,24-Jul-2020 03:33:00,33.48228,-122.53278,080.0 080.0,080.0,080.0,493.000,497.117,,5.4423,,5.4492,,5.4458,34.2191,,34.2193,34.2174,,34.2190,34.2192,0.4062,,0.4067,0.4546,2.1459,,1.1817,0.6628,0.5587,17.663,17.9503,11.8014,93.317,,21.4402,16.6208,0.0326,,,,-99.0,,-99.0,-99.0,27.0092,,27.0070,,0.6353,85.3144,,7.535,,1.9043E+00,,1.0000E-12,,5.4012,5.4081,0.8866,,5.773,30.503,,,,,,,,,,,,
CalCOFI,2007SR,058,60,2007_058u,24-Jul-2020 11:33:01,24-Jul-2020 03:33:01,33.48227,-122.53278,080.0 080.0,080.0,080.0,492.000,496.108,,5.4787,,5.4904,,5.4846,34.2259,,34.2261,34.2218,,34.2234,34.2248,0.4079,,0.4085,0.4564,2.1444,,1.1781,0.6591,0.5578,17.735,18.0255,11.8762,93.250,,21.2770,16.5766,0.0320,,,,-99.0,,-99.0,-99.0,27.0102,,27.0055,,0.6354,85.3118,,7.536,,1.9043E+00,,1.0000E-12,,5.4376,5.4492,0.8866,,5.802,30.512,,,,,,,,,,,,
CalCOFI,2007SR,058,60,2007_058u,24-Jul-2020 11:33:02,24-Jul-2020 03:33:02,33.48226,-122.53278,080.0 080.0,080.0,080.0,491.000,495.098,,5.5032,,5.5037,,5.5035,34.2205,,34.2207,34.2195,,34.2211,34.2209,0.4101,,0.4108,0.4587,2.1487,,1.1884,0.6695,0.5641,17.832,18.1267,11.9770,93.439,,21.7374,16.8572,0.0324,,,,-99.0,,-99.0,-99.0,27.0030,,27.0021,,0.6362,85.2948,,7.535,,1.9043E+00,,1.0000E-12,,5.4620,5.4626,0.8866,,5.836,30.583,,,,,,,,,,,,
CalCOFI,2007SR,058,60,2007_058u,24-Jul-2020 11:33:03,24-Jul-2020 03:33:03,33.48226,-122.53278,080.0 080.0,080.0,080.0,490.000,494.089,,5.4905,,5.4899,,5.4902,34.2136,,34.2138,34.2162,,34.2178,34.2158,0.4152,,0.4161,0.4640,2.1445,,1.1784,0.6594,0.5617,18.057,18.3616,12.2108,93.257,,21.2941,16.7525,0.0325,,,,-99.0,,-99.0,-99.0,26.9990,,27.0011,,0.6364,85.2913,,7.535,,1.9043E+00,,1.0000E-12,,5.4495,5.4489,0.8866,,5.908,30.512,,,,,,,,,,,,
CalCOFI,2007SR,058,60,2007_058u,24-Jul-2020 11:33:04,24-Jul-2020 03:33:04,33.48226,-122.53278,080.0 080.0,080.0,080.0,489.000,493.079,,5.5060,,5.5098,,5.5079,34.2176,,34.2178,34.2154,,34.2170,34.2174,0.4128,,0.4136,0.4615,2.1413,,1.1707,0.6516,0.5566,17.950,18.2499,12.0996,93.115,,20.9482,16.5239,0.0330,,,,-99.0,,-99.0,-99.0,27.0003,,26.9981,,0.6359,85.3017,,7.535,,1.9043E+00,,1.0000E-12,,5.4650,5.4688,0.8866,,5.875,30.480,,,,,,,,,,,,
CalCOFI,2007SR,058,60,2007_058u,24-Jul-2020 11:33:04,24-Jul-2020 03:33:04,33.48226,-122.53278,080.0 080.0,080.0,080.0,488.000,492.070,,5.5195,,5.5215,,5.5205,34.2153,,34.2155,34.2149,,34.2165,34.2160,0.4135,,0.4144,0.4622,2.1413,,1.1707,0.6516,0.5569,17.982,18.2833,12.1329,93.116,,20.9506,16.5418,0.0315,,,,-99.0,,-99.0,-99.0,26.9969,,26.9963,,0.6364,85.2915,,7.536,,1.9043E+00,,1.0000E-12,,5.4786,5.4806,0.8866,,5.887,30.488,,,,,,,,,,,,
CalCOFI,2007SR,058,60,2007_058u,24-Jul-2020 11:33:05,24-Jul-2020 03:33:05,33.48226,-122.53278,080.0 080.0,080.0,080.0,487.000,491.060,,5.5260,,5.5279,,5.5270,34.2161,,34.2163,34.2160,,34.2176,34.2170,0.4205,,0.4217,0.4695,2.1360,,1.1581,0.6388,0.5542,18.285,18.5996,12.4477,92.884,,20.3854,16.4166,0.0323,,,,-99.0,,-99.0,-99.0,26.9967,,26.9964,,0.6364,85.2913,,7.535,,1.9043E+00,,1.0000E-12,,5.4851,5.4871,0.8866,,5.987,30.417,,,,,,,,,,,,
CalCOFI,2007SR,058,60,2007_058u,24-Jul-2020 11:33:06,24-Jul-2020 03:33:06,33.48226,-122.53278,080.0 080.0,080.0,080.0,486.000,490.051,,5.5391,,5.5424,,5.5408,34.2165,,34.2167,34.2159,,34.2175,34.2171,0.4244,,0.4258,0.4735,2.1371,,1.1607,0.6415,0.5575,18.453,18.7750,12.6223,92.935,,20.5097,16.5660,0.0329,,,,-99.0,,-99.0,-99.0,26.9954,,26.9946,,0.6364,85.2913,,7.536,,1.9043E+00,,1.0000E-12,,5.4983,5.5016,0.8866,,6.045,30.444,,,,,,,,,,,,
CalCOFI,2007SR,058,60,2007_058u,24-Jul-2020 11:33:08,24-Jul-2020 03:33:08,33.48226,-122.53278,080.0 080.0,080.0,080.0,485.000,489.041,,5.5429,,5.5402,,5.5416,34.2100,,34.2102,34.2110,,34.2126,34.2114,0.4330,,0.4347,0.4825,2.1392,,1.1657,0.6466,0.5646,18.828,19.1664,13.0120,93.027,,20.7338,16.8729,0.0325,,,,-99.0,,-99.0,-99.0,26.9898,,26.9909,,0.6364,85.2913,,7.536,,1.9043E+00,,1.0000E-12,,5.5022,5.4994,0.8866,,6.168,30.472,,,,,,,,,,,,
CalCOFI,2007SR,058,60,2007_058u,24-Jul-2020 11:33:09,24-Jul-2020 03:33:09,33.48226,-122.53278,080.0 080.0,080.0,080.0,484.000,488.031,,5.5333,,5.5324,,5.5329,34.2059,,34.2061,34.2080,,34.2096,34.2079,0.4428,,0.4450,0.4927,2.1417,,1.1717,0.6526,0.5727,19.255,19.6122,13.4557,93.135,,20.9969,17.2263,0.0333,,,,-99.0,,-99.0,-99.0,26.9877,,26.9895,,0.6360,85.2990,,7.537,,1.9043E+00,,1.0000E-12,,5.4927,5.4918,0.8866,,6.306,30.501,,,,,,,,,,,,
CalCOFI,2007SR,058,60,2007_058u,24-Jul-2020 11:33:10,24-Jul-2020 03:33:10,33.48226,-122.53278,080.0 080.0,080.0,080.0,483.000,487.022,,5.5338,,5.5350,,5.5344,34.2062,,34.2064,34.2070,,34.2086,34.2075,0.4509,,0.4534,0.5011,2.1462,,1.1824,0.6635,0.5823,19.606,19.9786,13.8204,93.330,,21.4719,17.6462,0.0330,,,,-99.0,,-99.0,-99.0,26.9879,,26.9884,,0.6364,85.2911,,7.537,,1.9043E+00,,1.0000E-12,,5.4933,5.4945,0.8866,,6.421,30.567,,,,,,,,,,,,
CalCOFI,2007SR,058,60,2007_058u,24-Jul-2020 11:33:11,24-Jul-2020 03:33:11,33.48226,-122.53278,080.0 080.0,080.0,080.0,482.000,486.013,,5.5315,,5.5294,,5.5305,34.2010,,34.2012,34.2036,,34.2052,34.2032,0.4512,,0.4538,0.5014,2.1410,,1.1700,0.6509,0.5762,19.623,19.9963,13.8381,93.104,,20.9214,17.3798,0.0334,,,,-99.0,,-99.0,-99.0,26.9841,,26.9864,,0.6363,85.2940,,7.538,,1.9043E+00,,1.0000E-12,,5.4911,5.4889,0.8866,,6.426,30.488,,,,,,,,,,,,
CalCOFI,2007SR,058,60,2007_058u,24-Jul-2020 11:33:11,24-Jul-2020 03:33:11,33.48226,-122.53278,080.0 080.0,080.0,080.0,481.000,485.003,,5.5267,,5.5275,,5.5271,34.1996,,34.1998,34.2007,,34.2023,34.2011,0.4530,,0.4556,0.5033,2.1410,,1.1700,0.6509,0.5771,19.700,20.0767,13.9181,93.105,,20.9238,17.4210,0.0327,,,,-99.0,,-99.0,-99.0,26.9835,,26.9843,,0.6362,85.2966,,7.538,,1.9043E+00,,1.0000E-12,,5.4864,5.4872,0.8866,,6.450,30.486,,,,,,,,,,,,
CalCOFI,2007SR,058,60,2007_058u,24-Jul-2020 11:33:12,24-Jul-2020 03:33:12,33.48226,-122.53278,080.0 080.0,080.0,080.0,480.000,483.993,,5.5369,,5.5394,,5.5382,34.2015,,34.2017,34.2010,,34.2026,34.2022,0.4533,,0.4560,0.5036,2.1400,,1.1676,0.6485,0.5761,19.713,20.0903,13.9316,93.063,,20.8215,17.3766,0.0317,,,,-99.0,,-99.0,-99.0,26.9837,,26.9831,,0.6364,85.2914,,7.538,,1.9043E+00,,1.0000E-12,,5.4967,5.4991,0.8866,,6.456,30.481,,,,,,,,,,,,
CalCOFI,2007SR,058,60,2007_058u,24-Jul-2020 11:33:13,24-Jul-2020 03:33:13,33.48226,-122.53278,080.0 080.0,080.0,080.0,479.000,482.984,,5.5433,,5.5450,,5.5442,34.2000,,34.2002,34.2005,,34.2021,34.2012,0.4524,,0.4550,0.5026,2.1401,,1.1679,0.6487,0.5757,19.674,20.0496,13.8911,93.064,,20.8239,17.3575,0.0320,,,,-99.0,,-99.0,-99.0,26.9818,,26.9820,,0.6366,85.2873,,7.539,,1.9043E+00,,1.0000E-12,,5.5031,5.5048,0.8866,,6.444,30.485,,,,,,,,,,,,
CalCOFI,2007SR,058,60,2007_058u,24-Jul-2020 11:33:15,24-Jul-2020 03:33:15,33.48226,-122.53278,080.0 080.0,080.0,080.0,478.000,481.975,,5.5402,,5.5428,,5.5415,34.1994,,34.1996,34.2010,,34.2026,34.2011,0.4549,,0.4576,0.5052,2.1399,,1.1674,0.6483,0.5768,19.783,20.1634,14.0044,93.058,,20.8093,17.4069,0.0328,,,,-99.0,,-99.0,-99.0,26.9817,,26.9826,,0.6365,85.2899,,7.539,,1.9043E+00,,1.0000E-12,,5.5001,5.5026,0.8866,,6.479,30.482,,,,,,,,,,,,
CalCOFI,2007SR,058,60,2007_058u,24-Jul-2020 11:33:16,24-Jul-2020 03:33:16,33.48226,-122.53278,080.0 080.0,080.0,080.0,477.000,480.965,,5.5470,,5.5497,,5.5484,34.2016,,34.2018,34.2015,,34.2031,34.2025,0.4646,,0.4678,0.5153,2.1390,,1.1652,0.6461,0.5807,20.204,20.6029,14.4418,93.019,,20.7143,17.5781,0.0319,,,,-99.0,,-99.0,-99.0,26.9826,,26.9822,,0.6366,85.2866,,7.539,,1.9043E+00,,1.0000E-12,,5.5070,5.5096,0.8866,,6.619,30.474,,,,,,,,,,,,
CalCOFI,2007SR,058,60,2007_058u,24-Jul-2020 11:33:17,24-Jul-2020 03:33:17,33.48225,-122.53278,080.0 080.0,080.0,080.0,476.000,479.956,,5.5592,,5.5631,,5.5612,34.2027,,34.2029,34.2009,,34.2025,34.2027,0.4694,,0.4728,0.5203,2.1380,,1.1628,0.6437,0.5820,20.411,20.8189,14.6569,92.974,,20.6047,17.6308,0.0323,,,,-99.0,,-99.0,-99.0,26.9820,,26.9801,,0.6364,85.2914,,7.539,,1.9043E+00,,1.0000E-12,,5.5192,5.5231,0.8866,,6.689,30.469,,,,,,,,,,,,
CalCOFI,2007SR,058,60,2007_058u,24-Jul-2020 11:33:18,24-Jul-2020 03:33:18,33.48224,-122.53278,080.0 080.0,080.0,080.0,475.000,478.946,,5.5644,,5.5646,,5.5645,34.1959,,34.1961,34.1968,,34.1984,34.1973,0.4740,,0.4776,0.5251,2.1377,,1.1621,0.6429,0.5840,20.614,21.0309,14.8679,92.961,,20.5730,17.7205,0.0336,,,,-99.0,,-99.0,-99.0,26.9760,,26.9767,,0.6364,85.2913,,7.539,,1.9043E+00,,1.0000E-12,,5.5245,5.5246,0.8866,,6.755,30.465,,,,,,,,,,,,
CalCOFI,2007SR,058,60,2007_058u,24-Jul-2020 11:33:18,24-Jul-2020 03:33:18,33.48224,-122.53278,080.0 080.0,080.0,080.0,474.000,477.937,,5.5621,,5.5616,,5.5619,34.1933,,34.1935,34.1948,,34.1964,34.1950,0.4745,,0.4781,0.5256,2.1376,,1.1619,0.6427,0.5842,20.636,21.0538,14.8907,92.960,,20.5706,17.7307,0.0323,,,,-99.0,,-99.0,-99.0,26.9742,,26.9754,,0.6364,85.2913,,7.539,,1.9043E+00,,1.0000E-12,,5.5222,5.5217,0.8866,,6.762,30.462,,,,,,,,,,,,
CalCOFI,2007SR,058,60,2007_058u,24-Jul-2020 11:33:19,24-Jul-2020 03:33:19,33.48224,-122.53278,080.0 080.0,080.0,080.0,473.000,476.927,,5.5606,,5.5605,,5.5606,34.1925,,34.1927,34.1939,,34.1955,34.1941,0.4675,,0.4708,0.5183,2.1402,,1.1681,0.6490,0.5837,20.329,20.7333,14.5717,93.070,,20.8385,17.7051,0.0320,,,,-99.0,,-99.0,-99.0,26.9737,,26.9748,,0.6364,85.2913,,7.539,,1.9043E+00,,1.0000E-12,,5.5209,5.5208,0.8866,,6.661,30.496,,,,,,,,,,,,
CalCOFI,2007SR,058,60,2007_058u,24-Jul-2020 11:33:20,24-Jul-2020 03:33:20,33.48226,-122.53278,080.0 080.0,080.0,080.0,472.000,475.918,,5.5613,,5.5614,,5.5614,34.1925,,34.1927,34.1937,,34.1953,34.1940,0.4684,,0.4717,0.5193,2.1373,,1.1612,0.6420,0.5807,20.369,20.7751,14.6133,92.945,,20.5340,17.5737,0.0333,,,,-99.0,,-99.0,-99.0,26.9736,,26.9745,,0.6364,85.2913,,7.539,,1.9043E+00,,1.0000E-12,,5.5217,5.5217,0.8866,,6.674,30.456,,,,,,,,,,,,
CalCOFI,2007SR,058,60,2007_058u,24-Jul-2020 11:33:22,24-Jul-2020 03:33:22,33.48226,-122.53276,080.0 080.0,080.0,080.0,471.000,474.908,,5.5602,,5.5604,,5.5603,34.1945,,34.1947,34.1955,,34.1971,34.1959,0.4794,,0.4832,0.5307,2.1406,,1.1691,0.6499,0.5903,20.849,21.2762,15.1121,93.090,,20.8873,17.9997,0.0330,,,,-99.0,,-99.0,-99.0,26.9753,,26.9761,,0.6369,85.2815,,7.539,,1.9043E+00,,1.0000E-12,,5.5207,5.5209,0.8866,,6.831,30.503,,,,,,,,,,,,
CalCOFI,2007SR,058,60,2007_058u,24-Jul-2020 11:33:23,24-Jul-2020 03:33:23,33.48224,-122.53276,080.0 080.0,080.0,080.0,470.000,473.899,,5.5614,,5.5619,,5.5617,34.1937,,34.1939,34.1942,,34.1958,34.1949,0.4926,,0.4970,0.5444,2.1399,,1.1674,0.6483,0.5964,21.420,21.8722,15.7054,93.056,,20.8044,18.2549,0.0336,,,,-99.0,,-99.0,-99.0,26.9745,,26.9749,,0.6364,85.2915,,7.539,,1.9043E+00,,1.0000E-12,,5.5219,5.5224,0.8866,,7.019,30.493,,,,,,,,,,,,
CalCOFI,2007SR,058,60,2007_058u,24-Jul-2020 11:33:24,24-Jul-2020 03:33:24,33.48224,-122.53278,080.0 080.0,080.0,080.0,469.000,472.889,,5.5684,,5.5708,,5.5696,34.1906,,34.1908,34.1900,,34.1916,34.1912,0.4928,,0.4972,0.5446,2.1481,,1.1870,0.6681,0.6064,21.431,21.8837,15.7168,93.415,,21.6790,18.6979,0.0326,,,,-99.0,,-99.0,-99.0,26.9713,,26.9705,,0.6364,85.2913,,7.539,,1.9043E+00,,1.0000E-12,,5.5290,5.5314,0.8866,,7.023,30.616,,,,,,,,,,,,
CalCOFI,2007SR,058,60,2007_058u,24-Jul-2020 11:33:25,24-Jul-2020 03:33:25,33.48224,-122.53278,080.0 080.0,080.0,080.0,468.000,471.880,,5.5740,,5.5749,,5.5745,34.1882,,34.1884,34.1885,,34.1901,34.1893,0.4921,,0.4965,0.5439,2.1411,,1.1702,0.6512,0.5976,21.399,21.8503,15.6836,93.111,,20.9384,18.3110,0.0329,,,,-99.0,,-99.0,-99.0,26.9687,,26.9688,,0.6361,85.2969,,7.539,,1.9043E+00,,1.0000E-12,,5.5346,5.5355,0.8866,,7.014,30.519,,,,,,,,,,,,
CalCOFI,2007SR,058,60,2007_058u,24-Jul-2020 11:33:26,24-Jul-2020 03:33:26,33.48224,-122.53278,080.0 080.0,080.0,080.0,467.000,470.870,,5.5840,,5.5888,,5.5864,34.1911,,34.1913,34.1893,,34.1909,34.1911,0.4922,,0.4966,0.5440,2.1393,,1.1660,0.6468,0.5954,21.405,21.8566,15.6898,93.030,,20.7411,18.2155,0.0334,,,,-99.0,,-99.0,-99.0,26.9697,,26.9678,,0.6364,85.2913,,7.539,,1.9043E+00,,1.0000E-12,,5.5447,5.5495,0.8866,,7.018,30.503,,,,,,,,,,,,
CalCOFI,2007SR,058,60,2007_058u,24-Jul-2020 11:33:26,24-Jul-2020 03:33:26,33.48224,-122.53278,080.0 080.0,080.0,080.0,466.000,469.861,,5.6116,,5.6181,,5.6149,34.1941,,34.1943,34.1902,,34.1918,34.1931,0.4874,,0.4916,0.5390,2.1360,,1.1581,0.6388,0.5889,21.195,21.6374,15.4716,92.889,,20.3976,17.9346,0.0320,,,,-99.0,,-99.0,-99.0,26.9688,,26.9649,,0.6364,85.2913,,7.539,,1.9043E+00,,1.0000E-12,,5.5723,5.5788,0.8866,,6.953,30.478,,,,,,,,,,,,
CalCOFI,2007SR,058,60,2007_058u,24-Jul-2020 11:33:27,24-Jul-2020 03:33:27,33.48224,-122.53278,080.0 080.0,080.0,080.0,465.000,468.852,,5.6409,,5.6477,,5.6443,34.1946,,34.1948,34.1919,,34.1935,34.1942,0.4853,,0.4894,0.5368,2.1354,,1.1566,0.6374,0.5871,21.103,21.5413,15.3760,92.865,,20.3392,17.8576,0.0330,,,,-99.0,,-99.0,-99.0,26.9656,,26.9626,,0.6364,85.2913,,7.539,,1.9043E+00,,1.0000E-12,,5.6016,5.6083,0.8866,,6.928,30.491,,,,,,,,,,,,